Location: Arborea
(39.7744°N, 8.5819°E)
Time: 21:08:00
(UTC+00:00)

MOS 1-B Rocket - Pass Details

Date: 24 October 2021
Orbit: 890 x 1605 km, 99.0° (Epoch: 06 December)

Event Time Altitude Azimuth Distance (km) Brightness Sun altitude
Rises 17:23:20 0° 16° (NNE) 3,935 6.9 -10.2°
Reaches altitude 10° 17:26:04 10° 20° (NNE) 2,881 6.2 -10.7°
Maximum altitude 17:32:22 63° 101° (E) 1,064 4.0 -11.9°
Drops below altitude 10° 17:37:59 10° 182° (S) 2,579 6.3 -13.0°
Sets 17:40:18 0° 186° (S) 3,493 7.0 -13.5°
